Punta Gorda, FL

3:51 PM EST on December 06, 2016 (GMT -0500)
Charlotte County

Weather History for KPGD - January, 2014

Change the Weather History Date:

Saturday, January 11, 2014

  Actual Average Record
Temperature  
Mean Temperature 77 °F -  
Max Temperature 84 °F 71 °F 84 °F (2013)
Min Temperature 70 °F 48 °F 37 °F (2004)
Cooling Degree Days 12    
Growing Degree Days 27 (Base 50)    
Moisture  
Dew Point 70 °F    
Average Humidity 85    
Maximum Humidity 97    
Minimum Humidity 61    
Precipitation  
Precipitation 0.14 in - - ()
Sea Level Pressure  
Sea Level Pressure 30.06 in    
Wind  
Wind Speed 11 mph (SSW)    
Max Wind Speed 22 mph    
Max Gust Speed 32 mph    
Visibility 9 miles    
Events Rain    
Averages and records for this station are not official NWS values.
T = Trace of Precipitation, MM = Missing Value Source: NWS Daily Summary

Daily Weather History Graph

Daily Weather History Graph

Search for Another Location

Airport or City:

Trip Planner

Search our weather history database for the weather conditions in past years. The results will help you decide how hot, cold, wet, or windy it might be!

Date:

Astronomy

Jan. 11, 2014 Rise Set
Actual Time 7:18 AM EST 5:53 PM EST
Civil Twilight 6:53 AM EST 6:18 PM EST
Nautical Twilight 6:24 AM EST 6:47 PM EST
Astronomical Twilight 5:56 AM EST 7:15 PM EST
Moon 2:33 PM EST (1/11) 3:26 AM EST (1/11)
Length of Visible Light 11h 25m
Length of Day
10h 34m
Waxing Gibbous, 83% of the Moon is Illuminated
Jan 11
Waxing Gibbous
Jan 15
Full
Jan 24
Last Quarter
Jan 30
New
Feb 6
First Quarter

Hourly Weather History & Observations

Time (EST) Temp. Heat Index Dew Point Humidity Pressure Visibility Wind Dir Wind Speed Gust Speed Precip Events Conditions
12:53 AM 72.0 °F - 70.0 °F 93% 30.10 in 10.0 mi SE 8.1 mph - N/A   Clear
1:53 AM 72.0 °F - 69.1 °F 91% 30.09 in 10.0 mi SE 8.1 mph - N/A   Clear
2:53 AM 71.1 °F - 69.1 °F 93% 30.08 in 10.0 mi SE 8.1 mph - N/A   Clear
3:28 AM 71.1 °F - 69.1 °F 93% 30.07 in 10.0 mi SE 9.2 mph - N/A   Scattered Clouds
3:37 AM 71.1 °F - 70.0 °F 96% 30.07 in 4.0 mi SE 11.5 mph - N/A   Mostly Cloudy
3:48 AM 71.6 °F - 69.8 °F 94% 30.06 in 2.0 mi SE 10.4 mph - N/A   Overcast
3:53 AM 71.1 °F - 70.0 °F 96% 30.06 in 2.5 mi SE 10.4 mph - N/A   Overcast
4:05 AM 72.0 °F - 70.0 °F 93% 30.06 in 3.0 mi SE 12.7 mph - N/A   Overcast
4:53 AM 71.1 °F - 70.0 °F 96% 30.06 in 10.0 mi SSE 10.4 mph - N/A   Mostly Cloudy
5:19 AM 71.1 °F - 70.0 °F 96% 30.07 in 10.0 mi SSE 8.1 mph - N/A   Scattered Clouds
5:41 AM 71.1 °F - 70.0 °F 96% 30.06 in 10.0 mi SSE 9.2 mph - N/A   Mostly Cloudy
5:53 AM 71.1 °F - 70.0 °F 96% 30.07 in 10.0 mi SSE 10.4 mph - N/A   Overcast
6:53 AM 72.0 °F - 70.0 °F 93% 30.08 in 10.0 mi SSE 11.5 mph - N/A   Mostly Cloudy
7:05 AM 72.0 °F - 70.0 °F 93% 30.08 in 10.0 mi SSE 10.4 mph - N/A   Mostly Cloudy
7:13 AM 72.0 °F - 70.0 °F 93% 30.07 in 10.0 mi SSE 10.4 mph - N/A   Scattered Clouds
7:28 AM 72.0 °F - 70.0 °F 93% 30.08 in 10.0 mi SSE 10.4 mph - N/A   Mostly Cloudy
7:53 AM 72.0 °F - 71.1 °F 97% 30.09 in 10.0 mi SSE 11.5 mph - N/A   Mostly Cloudy
8:29 AM 73.0 °F - 72.0 °F 96% 30.10 in 10.0 mi SSE 10.4 mph - N/A   Scattered Clouds
8:53 AM 75.0 °F - 72.0 °F 90% 30.11 in 10.0 mi South 11.5 mph - N/A   Partly Cloudy
9:53 AM 79.0 °F - 72.0 °F 79% 30.12 in 10.0 mi South 16.1 mph - N/A   Scattered Clouds
10:37 AM 81.0 °F 84.9 °F 71.1 °F 72% 30.12 in 10.0 mi South 18.4 mph - N/A   Mostly Cloudy
10:53 AM 82.9 °F 87.5 °F 71.1 °F 67% 30.12 in 10.0 mi South 19.6 mph 26.5 mph N/A   Mostly Cloudy
11:29 AM 82.9 °F 87.5 °F 71.1 °F 67% 30.10 in 10.0 mi SSW 18.4 mph - N/A   Mostly Cloudy
11:53 AM 84.0 °F 89.0 °F 71.1 °F 65% 30.09 in 10.0 mi SSW 18.4 mph 24.2 mph N/A   Mostly Cloudy
12:13 PM 82.9 °F 87.5 °F 71.1 °F 67% 30.07 in 10.0 mi South 17.3 mph 27.6 mph N/A   Mostly Cloudy
12:23 PM 84.0 °F 89.0 °F 71.1 °F 65% 30.06 in 10.0 mi SSW 19.6 mph 26.5 mph N/A   Mostly Cloudy
12:34 PM 82.9 °F 87.5 °F 71.1 °F 67% 30.05 in 10.0 mi SSW 16.1 mph - N/A   Mostly Cloudy
12:45 PM 82.0 °F 86.3 °F 71.1 °F 69% 30.04 in 10.0 mi SSW 21.9 mph 27.6 mph N/A   Mostly Cloudy
12:53 PM 84.0 °F 89.0 °F 71.1 °F 65% 30.04 in 10.0 mi SSW 20.7 mph 26.5 mph N/A   Mostly Cloudy
1:53 PM 84.9 °F 89.4 °F 70.0 °F 61% 30.01 in 10.0 mi SSW 18.4 mph 32.2 mph N/A   Scattered Clouds
2:53 PM 82.0 °F 84.9 °F 68.0 °F 62% 30.01 in 10.0 mi SW 15.0 mph 27.6 mph N/A   Partly Cloudy
3:53 PM 81.0 °F 84.4 °F 70.0 °F 69% 30.00 in 10.0 mi SW 13.8 mph 24.2 mph N/A   Clear
4:53 PM 79.0 °F - 70.0 °F 74% 30.01 in 10.0 mi SW 13.8 mph - N/A   Clear
5:53 PM 75.9 °F - 70.0 °F 82% 30.01 in 10.0 mi SW 10.4 mph - N/A   Partly Cloudy
6:12 PM 75.9 °F - 71.1 °F 85% 30.01 in 10.0 mi SW 11.5 mph - N/A   Mostly Cloudy
6:36 PM 75.9 °F - 71.1 °F 85% 30.02 in 10.0 mi SSW 12.7 mph - N/A   Overcast
6:53 PM 75.0 °F - 71.1 °F 87% 30.03 in 10.0 mi SSW 13.8 mph - N/A   Overcast
7:18 PM 75.0 °F - 71.1 °F 87% 30.03 in 10.0 mi SSW 13.8 mph - N/A   Mostly Cloudy
7:53 PM 73.9 °F - 71.1 °F 91% 30.05 in 10.0 mi SW 11.5 mph - N/A   Mostly Cloudy
8:35 PM 73.0 °F - 69.1 °F 87% 30.06 in 9.0 mi WSW 16.1 mph - 0.02 in Rain Light Rain
8:53 PM 72.0 °F - 68.0 °F 87% 30.05 in 10.0 mi WSW 10.4 mph 20.7 mph 0.03 in Rain Light Rain
9:53 PM 72.0 °F - 70.0 °F 93% 30.06 in 10.0 mi SW 8.1 mph - 0.00 in   Partly Cloudy
10:13 PM 72.0 °F - 69.1 °F 91% 30.05 in 10.0 mi WSW 8.1 mph - N/A   Mostly Cloudy
10:22 PM 72.0 °F - 68.0 °F 87% 30.06 in 10.0 mi WSW 13.8 mph - N/A   Mostly Cloudy
10:36 PM 71.1 °F - 68.0 °F 90% 30.08 in 8.0 mi WNW 10.4 mph - 0.02 in Rain Light Rain
10:53 PM 70.0 °F - 68.0 °F 93% 30.08 in 8.0 mi West 9.2 mph - 0.09 in Rain Light Rain
11:25 PM 70.0 °F - 68.0 °F 93% 30.07 in 10.0 mi WSW 8.1 mph - 0.02 in   Overcast
11:36 PM 70.0 °F - 68.0 °F 93% 30.07 in 9.0 mi WSW 9.2 mph - 0.02 in Rain Light Rain
11:53 PM 70.0 °F - 68.0 °F 93% 30.07 in 10.0 mi West 10.4 mph - 0.02 in   Mostly Cloudy